Location: Aztalan State Park
(43.0642°N, 88.8607°W)
Time: 09:30:18
(UTC-06:00)

Amateur Radio Satellites - All Passes

Search period start: 18 November 2017 09:00
Search period end: 19 November 2017 09:00
Location: Aztalan State Park, 43.0642°N, 88.8607°W

Satellite Date Start Highest point End Downlink Frequencies (MHz)
Time Altitude Azimuth
Max Valier Satellite 18 Nov 09:01:16 09:04:06 21° 94° (E) 09:06:57 145.860
AO-73 18 Nov 09:04:01 09:07:41 31° 290° (WNW) 09:11:20 145.935
PRISM 18 Nov 09:07:39 09:11:33 43° 71° (ENE) 09:15:30 437.425
EO-88 18 Nov 09:07:53 09:10:25 18° 93° (E) 09:12:57 145.990 - 145.960
AAUSAT CUBESAT 2 18 Nov 09:20:16 09:22:18 13° 297° (WNW) 09:24:20 437.432
FO-29 18 Nov 09:21:07 09:25:44 20° 274° (W) 09:30:46 435.910
Oscar 11 18 Nov 09:24:21 09:28:07 30° 291° (WNW) 09:31:51 .
PCSat 18 Nov 09:32:29 09:37:53 60° 56° (NE) 09:43:13 145.827
AIST 2D 18 Nov 09:36:49 09:39:34 22° 69° (ENE) 09:42:20 435.315
HO-68 18 Nov 09:42:45 09:45:40 13° 312° (NW) 09:48:36 435.675
ZACube-1 18 Nov 09:49:24 09:50:14 11° 299° (WNW) 09:51:04 437.345
QB50P2 18 Nov 09:49:34 09:52:13 16° 64° (ENE) 09:54:53 145.880/145.840
ESTCUBE 1 18 Nov 10:08:01 10:08:38 10° 88° (E) 10:09:14 437.505/2401.250
UNISAT 6 18 Nov 10:19:56 10:22:10 13° 270° (W) 10:24:22 437.425
DELFI C3 18 Nov 10:21:10 10:24:39 29° 291° (WNW) 10:28:07 145.870
TIGRISAT 18 Nov 10:25:26 10:27:29 13° 270° (W) 10:29:32 435.000
Max Valier Satellite 18 Nov 10:34:50 10:37:54 25° 290° (WNW) 10:40:57 145.860
EO-88 18 Nov 10:40:53 10:44:06 30° 290° (WNW) 10:47:19 145.990 - 145.960
DUCHIFAT 1 18 Nov 10:43:07 10:47:04 40° 71° (ENE) 10:51:02 145.980
PRISM 18 Nov 10:44:28 10:47:01 16° 268° (W) 10:49:37 437.425
EO-79 18 Nov 10:45:59 10:50:09 57° 73° (ENE) 10:54:20 145.935-145.965
NANOSAT C BR1 18 Nov 10:51:30 10:55:40 58° 74° (ENE) 10:59:50 145.865
POLYITAN 1 18 Nov 11:00:16 11:04:31 83° 74° (ENE) 11:08:47 437.675
AIST 2D 18 Nov 11:10:00 11:12:40 21° 265° (W) 11:15:22 435.315
LO-87 18 Nov 11:15:39 11:19:13 87° 104° (ESE) 11:22:44 145.935 - 145.965
BEESAT 3 18 Nov 11:15:41 11:19:11 29° 47° (NE) 11:22:37 437.485
PCSat 18 Nov 11:16:54 11:20:47 20° 254° (WSW) 11:24:40 145.827
AO-85 18 Nov 11:22:45 11:23:24 10° 32° (NNE) 11:24:03 145.980
QB50P2 18 Nov 11:23:29 11:27:36 49° 260° (W) 11:31:45 145.880/145.840
AO-7 18 Nov 11:38:16 11:39:00 10° 37° (NE) 11:39:45 .
ESTCUBE 1 18 Nov 11:41:26 11:45:59 80° 283° (WNW) 11:50:29 437.505/2401.250
BUGSAT 1 18 Nov 11:48:32 11:52:39 53° 73° (ENE) 11:56:44 437.445
FALCONSAT 3 18 Nov 11:48:48 11:51:37 21° 169° (SSE) 11:54:26 435.103
SPROUT 18 Nov 12:03:00 12:07:04 43° 99° (E) 12:11:06 437.525
Gurwin Techsat 1B 18 Nov 12:04:02 12:08:45 34° 67° (ENE) 12:13:29 435.225
Oscar 19 18 Nov 12:04:34 12:09:25 46° 70° (ENE) 12:14:18 437.125/150
VELOX 1 18 Nov 12:16:32 12:20:42 38° 98° (E) 12:24:51 145.980
BEESAT 2 18 Nov 12:18:59 12:22:47 38° 50° (NE) 12:26:31 435.950
DUCHIFAT 1 18 Nov 12:19:59 12:22:53 18° 267° (W) 12:25:48 145.980
EO-79 18 Nov 12:24:16 12:26:15 13° 270° (W) 12:28:14 145.935-145.965
NANOSAT C BR1 18 Nov 12:29:50 12:31:43 13° 270° (W) 12:33:36 145.865
BEESAT 3 18 Nov 12:53:16 12:56:39 27° 245° (WSW) 12:59:56 437.485
AO-85 18 Nov 13:00:22 13:04:51 48° 51° (NE) 13:09:40 145.980
DX 1 18 Nov 13:12:22 13:16:23 34° 97° (E) 13:20:22 434.975-435.025
AO-7 18 Nov 13:21:57 13:29:31 42° 60° (ENE) 13:37:06 .
M-CUBED/EXP-1 PRIME 18 Nov 13:25:22 13:28:49 87° 74° (ENE) 13:32:36 437.505
BUGSAT 1 18 Nov 13:26:09 13:28:17 14° 269° (W) 13:30:26 437.445
FALCONSAT 3 18 Nov 13:27:06 13:30:10 24° 184° (S) 13:33:12 435.103
SPROUT 18 Nov 13:39:44 13:42:38 18° 295° (WNW) 13:45:31 437.525
Gurwin Techsat 1B 18 Nov 13:43:54 13:48:40 33° 264° (W) 13:53:27 435.225
Oscar 19 18 Nov 13:44:59 13:48:56 22° 267° (W) 13:52:56 437.125/150
ITAMSAT 1 18 Nov 13:50:31 13:54:58 29° 65° (ENE) 13:59:26 435.822/435.867
O/OREOS (USA 219) 18 Nov 13:52:31 13:57:05 79° 112° (ESE) 14:01:43 437.305
VELOX 1 18 Nov 13:53:28 13:56:54 22° 295° (WNW) 14:00:18 145.980
BEESAT 2 18 Nov 13:57:12 14:00:16 21° 248° (WSW) 14:03:17 435.950
50 SAT 18 Nov 13:58:51 14:01:58 44° 287° (WNW) 14:05:02 437.505
UKube-1 18 Nov 14:01:02 14:05:23 73° 104° (ESE) 14:09:41 .
MOZHAYETS 4 18 Nov 14:32:53 14:36:53 29° 96° (E) 14:40:51
AO-85 18 Nov 14:41:16 14:45:04 24° 247° (WSW) 14:49:04 145.980
DX 1 18 Nov 14:48:53 14:52:22 24° 294° (WNW) 14:55:50 434.975-435.025
FALCONSAT 3 18 Nov 15:06:34 15:08:37 14° 199° (SSW) 15:10:40 435.103
AO-7 18 Nov 15:14:12 15:22:07 49° 259° (W) 15:30:07 .
BEESAT 18 Nov 15:20:01 15:24:46 67° 102° (ESE) 15:29:28 436.000
ITUPSAT 1 18 Nov 15:27:33 15:32:20 78° 102° (ESE) 15:37:05 437.325
ITAMSAT 1 18 Nov 15:29:27 15:34:16 38° 262° (W) 15:39:09 435.822/435.867
O/OREOS (USA 219) 18 Nov 15:34:41 15:37:06 14° 310° (NW) 15:39:32 437.305
UKube-1 18 Nov 15:39:05 15:40:48 12° 300° (WNW) 15:42:30 .
DOVE 4 18 Nov 15:44:03 15:48:52 52° 72° (ENE) 15:53:55 437.250
NO-84 18 Nov 15:58:52 16:02:34 64° 136° (SE) 16:06:35 435.350 FM
YUBILEINY 18 Nov 16:02:41 16:11:06 45° 73° (ENE) 16:19:26 435.215
MOZHAYETS 4 18 Nov 16:10:03 16:13:58 29° 292° (WNW) 16:17:52
CUBESAT XI-V 18 Nov 16:12:42 16:17:24 75° 102° (ESE) 16:22:05 437.345
KAITUO 1B 18 Nov 16:23:52 16:26:13 16° 66° (ENE) 16:28:34 145.475/437.950
XW-2D 18 Nov 16:29:54 16:33:04 27° 70° (ENE) 16:36:16 145.860 - 145.880
HO-68 18 Nov 16:35:47 16:41:16 24° 56° (ENE) 16:46:46 435.675
CUTE-I 18 Nov 16:39:25 16:44:18 38° 68° (ENE) 16:49:15 437.470
RS-15 18 Nov 16:40:50 16:46:03 14° 93° (E) 16:51:15 29.354- 29.394
XW-2B 18 Nov 16:44:16 16:47:44 38° 72° (ENE) 16:51:13 145.730 - 145.750
KKS-1 18 Nov 16:46:54 16:51:06 38° 98° (E) 16:55:14 437.445
BEESAT 18 Nov 16:59:16 17:01:59 15° 299° (WNW) 17:04:41 436.000
ITUPSAT 1 18 Nov 17:07:15 17:09:30 13° 301° (WNW) 17:11:46 437.325
LilacSat-2 18 Nov 17:07:31 17:11:16 84° 75° (ENE) 17:15:02 437.200
XW-2C 18 Nov 17:09:22 17:13:05 82° 76° (ENE) 17:16:51 145.795 - 145.815
NUDT-PHONESAT 18 Nov 17:12:24 17:15:58 59° 75° (ENE) 17:19:34 437.300
STARS 18 Nov 17:19:53 17:23:55 34° 97° (E) 17:27:54 437.465
XW-2F 18 Nov 17:22:58 17:26:40 72° 258° (WSW) 17:30:24 145.980 - 146.000
DOVE 4 18 Nov 17:23:15 17:26:51 20° 270° (W) 17:30:35 437.250
UWE-3 18 Nov 17:35:36 17:37:56 14° 63° (ENE) 17:40:13 435.000/436.395/437.385
NO-84 18 Nov 17:36:50 17:40:14 27° 336° (NNW) 17:43:49 435.350 FM
CUTE 1.7 + AOD 2 18 Nov 17:41:32 17:45:29 42° 72° (ENE) 17:49:28 437.475
XW-2A 18 Nov 17:50:01 17:51:32 13° 66° (ENE) 17:53:03 145.665 - 145.685
CUBESAT XI-V 18 Nov 17:51:57 17:54:08 13° 299° (WNW) 17:56:21 437.345
KAITUO 1B 18 Nov 17:56:32 17:59:54 34° 262° (W) 18:03:19 145.475/437.950
YUBILEINY 18 Nov 17:59:42 18:07:49 43° 273° (W) 18:15:55 435.215
XW-2D 18 Nov 18:04:23 18:07:14 20° 266° (W) 18:10:06 145.860 - 145.880
CUBEBUG 2 18 Nov 18:06:19 18:10:46 49° 73° (ENE) 18:15:08 437.445
SEEDS 18 Nov 18:17:42 18:21:48 66° 75° (ENE) 18:25:58 437.485
CUTE-I 18 Nov 18:19:45 18:24:23 30° 265° (W) 18:29:05 437.470
XW-2B 18 Nov 18:19:55 18:22:04 15° 268° (W) 18:24:14 145.730 - 145.750
HO-68 18 Nov 18:21:07 18:28:18 74° 256° (WSW) 18:35:33 435.675
KKS-1 18 Nov 18:23:58 18:27:24 22° 295° (WNW) 18:30:49 437.445
AO-73 18 Nov 18:24:36 18:27:48 21° 67° (ENE) 18:30:57 145.935
AAUSAT CUBESAT 2 18 Nov 18:33:48 18:37:41 42° 72° (ENE) 18:41:37 437.432
RS-15 18 Nov 18:43:54 18:55:55 64° 115° (ESE) 19:07:54 29.354- 29.394
Oscar 11 18 Nov 18:44:13 18:47:33 22° 67° (ENE) 18:50:54 .
FO-29 18 Nov 18:44:51 18:47:54 12° 82° (E) 18:50:54 435.910
STARS 18 Nov 18:56:34 19:00:04 24° 294° (WNW) 19:03:33 437.465
ZACube-1 18 Nov 19:06:31 19:10:50 64° 75° (ENE) 19:15:05 437.345
UWE-3 18 Nov 19:09:26 19:13:54 63° 259° (W) 19:18:16 435.000/436.395/437.385
STRAND 1 18 Nov 19:10:45 19:15:46 52° 100° (E) 19:20:43 437.568
NO-84 18 Nov 19:16:09 19:18:44 16° 358° (N) 19:21:22 435.350 FM
CUTE 1.7 + AOD 2 18 Nov 19:18:46 19:21:30 17° 268° (W) 19:24:16 437.475
XW-2A 18 Nov 19:20:49 19:23:54 36° 262° (W) 19:27:01 145.665 - 145.685
DELFI C3 18 Nov 19:33:31 19:35:50 15° 64° (ENE) 19:38:11 145.870
Max Valier Satellite 18 Nov 19:42:20 19:43:43 12° 64° (ENE) 19:45:05 145.860
CUBEBUG 2 18 Nov 19:44:33 19:47:36 17° 268° (W) 19:50:37 437.445
SEEDS 18 Nov 19:56:54 19:57:56 11° 271° (W) 19:58:57 437.485
AO-73 18 Nov 19:59:45 20:03:48 37° 262° (W) 20:07:47 145.935
AAUSAT CUBESAT 2 18 Nov 20:10:43 20:13:20 16° 268° (W) 20:15:58 437.432
HO-68 18 Nov 20:14:23 20:17:12 12° 274° (W) 20:20:01 435.675
Oscar 11 18 Nov 20:19:36 20:23:29 34° 263° (W) 20:27:25 .
FO-29 18 Nov 20:26:25 20:34:19 67° 101° (ESE) 20:41:48 435.910
UNISAT 6 18 Nov 20:33:30 20:34:54 11° 89° (E) 20:36:16 437.425
TIGRISAT 18 Nov 20:38:31 20:40:05 12° 89° (E) 20:41:38 435.000
nSIGHT-1 18 Nov 20:43:42 20:45:48 16° 133° (SE) 20:47:54 .
ZACube-1 18 Nov 20:45:53 20:47:30 12° 270° (W) 20:49:06 437.345
STRAND 1 18 Nov 20:50:46 20:54:34 21° 297° (WNW) 20:58:20 437.568
NO-84 18 Nov 20:54:00 20:57:20 22° 19° (NNE) 21:00:42 435.350 FM
RS-15 18 Nov 20:57:10 21:08:59 49° 319° (NW) 21:20:41 29.354- 29.394
DELFI C3 18 Nov 21:06:24 21:10:11 45° 261° (W) 21:14:02 145.870
ESTCUBE 1 18 Nov 21:08:08 21:09:46 12° 60° (ENE) 21:11:24 437.505/2401.250
Max Valier Satellite 18 Nov 21:13:31 21:17:05 50° 261° (W) 21:20:40 145.860
ISS 18 Nov 21:17:45 21:20:36 28° 137° (SE) 21:23:28 437.550
EO-88 18 Nov 21:18:26 21:22:01 64° 260° (W) 21:25:37 145.990 - 145.960
LO-87 18 Nov 21:52:04 21:55:25 37° 72° (ENE) 21:58:47 145.935 - 145.965
SO-50 18 Nov 21:58:36 22:02:51 45° 118° (ESE) 22:07:09 436.795
UNISAT 6 18 Nov 22:07:47 22:12:04 64° 285° (WNW) 22:16:15 437.425
FO-29 18 Nov 22:12:10 22:18:41 30° 300° (WNW) 22:25:02 435.910
TIGRISAT 18 Nov 22:12:57 22:17:12 62° 286° (WNW) 22:21:22 435.000
nSIGHT-1 18 Nov 22:18:31 22:21:43 64° 330° (NNW) 22:24:55 .
PRISM 18 Nov 22:22:39 22:26:48 63° 101° (E) 22:30:55 437.425
O/OREOS (USA 219) 18 Nov 22:23:08 22:26:35 21° 54° (NE) 22:29:59 437.305
NO-84 18 Nov 22:31:02 22:35:18 72° 37° (NE) 22:39:33 435.350 FM
AIST 2D 18 Nov 22:33:07 22:36:02 24° 95° (E) 22:38:56 435.315
ESTCUBE 1 18 Nov 22:41:26 22:45:54 79° 258° (WSW) 22:50:24 437.505/2401.250
POLYITAN 1 18 Nov 22:45:58 22:47:39 12° 90° (E) 22:49:18 437.675
ISS 18 Nov 22:53:51 22:56:59 41° 335° (NNW) 23:00:07 437.550
SPROUT 18 Nov 22:56:50 23:00:46 37° 70° (ENE) 23:04:43 437.525
QB50P2 18 Nov 23:07:36 23:11:02 24° 95° (E) 23:14:25 145.880/145.840
VELOX 1 18 Nov 23:14:20 23:18:25 38° 70° (ENE) 23:22:33 145.980
RS-15 18 Nov 23:15:42 23:25:30 26° 351° (N) 23:35:03 29.354- 29.394
LO-87 18 Nov 23:26:58 23:28:58 14° 268° (W) 23:30:58 145.935 - 145.965
SO-50 18 Nov 23:39:48 23:43:30 25° 317° (NW) 23:47:15 436.795
nSIGHT-1 18 Nov 23:55:56 23:58:25 20° 349° (N) 00:00:53 .
PRISM 18 Nov 23:59:39 00:01:32 13° 298° (WNW) 00:03:25 437.425
DUCHIFAT 1 19 Nov 00:01:09 00:05:18 65° 101° (E) 00:09:25 145.980
O/OREOS (USA 219) 19 Nov 00:01:52 00:06:14 46° 253° (WSW) 00:10:32 437.305
EO-79 19 Nov 00:05:02 00:09:15 86° 289° (WNW) 00:13:26 145.935-145.965
AIST 2D 19 Nov 00:06:23 00:09:04 21° 291° (WNW) 00:11:46 435.315
DX 1 19 Nov 00:08:33 00:12:29 34° 69° (ENE) 00:16:27 434.975-435.025
NO-84 19 Nov 00:09:19 00:12:16 18° 235° (SW) 00:15:09 435.350 FM
NANOSAT C BR1 19 Nov 00:10:08 00:14:20 86° 283° (WNW) 00:18:30 145.865
PCSat 19 Nov 00:15:01 00:20:07 45° 113° (ESE) 00:25:16 145.827
Oscar 19 19 Nov 00:16:27 00:19:15 15° 90° (E) 00:22:02 437.125/150
POLYITAN 1 19 Nov 00:19:40 00:23:48 59° 287° (WNW) 00:27:54 437.675
Gurwin Techsat 1B 19 Nov 00:21:21 00:23:01 11° 88° (E) 00:24:40 435.225
50 SAT 19 Nov 00:26:17 00:29:26 53° 74° (ENE) 00:32:38 437.505
ISS 19 Nov 00:31:40 00:34:04 18° 354° (N) 00:36:29 437.550
SPROUT 19 Nov 00:33:33 00:36:45 20° 267° (W) 00:39:59 437.525
QB50P2 19 Nov 00:43:07 00:46:48 30° 291° (WNW) 00:50:27 145.880/145.840
VELOX 1 19 Nov 00:51:37 00:54:59 21° 266° (W) 00:58:22 145.980
BEESAT 19 Nov 00:53:26 00:54:45 11° 58° (ENE) 00:56:04 436.000
UKube-1 19 Nov 00:55:53 01:00:10 69° 74° (ENE) 01:04:29 .
ITUPSAT 1 19 Nov 01:00:26 01:02:33 13° 59° (ENE) 01:04:40 437.325
BUGSAT 1 19 Nov 01:04:20 01:08:24 81° 103° (ESE) 01:12:24 437.445
RS-15 19 Nov 01:32:20 01:42:59 34° 27° (NNE) 01:53:08 29.354- 29.394
nSIGHT-1 19 Nov 01:33:04 01:35:28 19° 9° (N) 01:37:51 .
MOZHAYETS 4 19 Nov 01:35:30 01:39:33 32° 68° (ENE) 01:43:35
DUCHIFAT 1 19 Nov 01:38:41 01:40:25 12° 298° (WNW) 01:42:07 145.980
DX 1 19 Nov 01:45:15 01:48:42 23° 265° (W) 01:52:13 434.975-435.025
Oscar 19 19 Nov 01:53:56 01:59:04 71° 287° (WNW) 02:04:12 437.125/150
Gurwin Techsat 1B 19 Nov 01:58:18 02:03:40 90° 79° (E) 02:08:59 435.225
PCSat 19 Nov 01:58:54 02:03:40 31° 312° (NW) 02:08:28 145.827
ISS 19 Nov 02:08:41 02:11:21 23° 14° (NNE) 02:14:02 437.550
BEESAT 19 Nov 02:26:58 02:31:45 86° 75° (ENE) 02:36:33 436.000
ITUPSAT 1 19 Nov 02:34:54 02:39:41 82° 254° (WSW) 02:44:31 437.325
UKube-1 19 Nov 02:35:20 02:36:38 11° 270° (W) 02:37:56 .
M-CUBED/EXP-1 PRIME 19 Nov 02:35:49 02:40:15 57° 106° (ESE) 02:44:48 437.505
BEESAT 3 19 Nov 02:42:42 02:46:19 34° 116° (ESE) 02:49:58 437.485
nSIGHT-1 19 Nov 03:09:04 03:12:13 52° 29° (NNE) 03:15:20 .
MOZHAYETS 4 19 Nov 03:12:51 03:16:41 26° 265° (W) 03:20:32
AO-7 19 Nov 03:14:06 03:22:17 55° 103° (ESE) 03:30:25 .
CUBESAT XI-V 19 Nov 03:16:34 03:21:08 80° 75° (ENE) 03:25:46 437.345
Oscar 19 19 Nov 03:37:00 03:37:26 10° 305° (NW) 03:37:53 437.125/150
Gurwin Techsat 1B 19 Nov 03:40:17 03:42:50 14° 303° (WNW) 03:45:23 435.225
ITAMSAT 1 19 Nov 03:40:44 03:45:58 70° 103° (ESE) 03:51:08 435.822/435.867
DOVE 4 19 Nov 03:43:33 03:46:24 15° 88° (E) 03:49:13 437.250
ISS 19 Nov 03:44:55 03:48:11 88° 24° (NNE) 03:51:27 437.550
RS-15 19 Nov 03:45:31 03:57:31 83° 55° (NE) 04:08:48 29.354- 29.394
KKS-1 19 Nov 03:45:31 03:49:42 40° 70° (ENE) 03:53:54 437.445
BEESAT 2 19 Nov 03:47:42 03:51:34 49° 119° (ESE) 03:55:29 435.950
BEESAT 19 Nov 04:09:28 04:10:08 10° 272° (W) 04:10:48 436.000
M-CUBED/EXP-1 PRIME 19 Nov 04:11:12 04:14:13 18° 301° (WNW) 04:17:19 437.505
STARS 19 Nov 04:17:03 04:21:04 35° 69° (ENE) 04:25:06 437.465
BEESAT 3 19 Nov 04:20:32 04:23:54 25° 314° (NW) 04:27:18 437.485
nSIGHT-1 19 Nov 04:45:48 04:48:13 20° 225° (SW) 04:50:36 .
SO-50 19 Nov 04:50:00 04:51:38 12° 31° (NNE) 04:53:15 436.795
STRAND 1 19 Nov 04:52:25 04:54:09 12° 57° (ENE) 04:55:54 437.568
AO-85 19 Nov 04:56:01 04:59:53 83° 304° (NW) 05:03:58 145.980
XW-2F 19 Nov 04:56:13 04:57:02 11° 90° (E) 04:57:50 145.980 - 146.000
CUTE-I 19 Nov 04:57:01 04:59:31 13° 89° (E) 05:02:01 437.470
CUBESAT XI-V 19 Nov 04:58:24 04:59:05 10° 272° (W) 04:59:46 437.345
YUBILEINY 19 Nov 05:04:39 05:12:55 49° 88° (E) 05:21:15 435.215
AO-7 19 Nov 05:07:19 05:14:43 37° 302° (WNW) 05:22:08 .
DOVE 4 19 Nov 05:19:23 05:24:37 71° 286° (WNW) 05:29:37 437.250
ITAMSAT 1 19 Nov 05:21:35 05:24:50 17° 300° (WNW) 05:28:05 435.822/435.867
ISS 19 Nov 05:22:58 05:24:12 12° 230° (SW) 05:25:27 437.550
KKS-1 19 Nov 05:23:04 05:26:23 20° 266° (W) 05:29:44 437.445
BEESAT 2 19 Nov 05:26:30 05:29:33 20° 317° (NW) 05:32:36 435.950
KAITUO 1B 19 Nov 05:26:40 05:29:27 19° 94° (E) 05:32:13 145.475/437.950
XW-2D 19 Nov 05:34:43 05:38:13 34° 97° (E) 05:41:43 145.860 - 145.880
HO-68 19 Nov 05:48:58 05:54:08 21° 91° (E) 05:59:15 435.675
XW-2B 19 Nov 05:49:18 05:53:00 50° 100° (E) 05:56:43 145.730 - 145.750
STARS 19 Nov 05:53:56 05:57:28 23° 265° (W) 06:01:00 437.465
RS-15 19 Nov 05:59:21 06:08:30 28° 258° (WSW) 06:17:20 29.354- 29.394
SEEDS 19 Nov 06:03:14 06:03:50 10° 88° (E) 06:04:26 437.485
LilacSat-2 19 Nov 06:13:38 06:17:28 72° 283° (WNW) 06:21:16 437.200
XW-2C 19 Nov 06:14:41 06:18:29 76° 284° (WNW) 06:22:17 145.795 - 145.815
NUDT-PHONESAT 19 Nov 06:14:51 06:18:33 73° 103° (ESE) 06:22:15 437.300
STRAND 1 19 Nov 06:27:20 06:32:29 81° 74° (ENE) 06:37:40 437.568
XW-2F 19 Nov 06:27:44 06:31:27 55° 286° (WNW) 06:35:10 145.980 - 146.000
SO-50 19 Nov 06:28:32 06:33:06 55° 52° (NE) 06:37:42 436.795
CUTE-I 19 Nov 06:34:48 06:40:12 81° 286° (WNW) 06:45:32 437.470
AO-85 19 Nov 06:39:17 06:41:01 12° 325° (NW) 06:42:48 145.980
FO-29 19 Nov 06:39:30 06:45:19 33° 62° (ENE) 06:51:43 435.910
XW-2A 19 Nov 06:42:52 06:43:49 11° 91° (E) 06:44:47 145.665 - 145.685
ZACube-1 19 Nov 06:56:17 06:57:10 11° 89° (E) 06:58:02 437.345
UWE-3 19 Nov 06:58:32 07:01:49 22° 94° (E) 07:05:05 435.000/436.395/437.385
KAITUO 1B 19 Nov 07:00:09 07:03:26 29° 290° (WNW) 07:06:45 145.475/437.950
DOVE 4 19 Nov 07:00:30 07:01:16 10° 304° (NW) 07:02:00 437.250
CUTE 1.7 + AOD 2 19 Nov 07:00:34 07:04:52 77° 103° (ESE) 07:09:08 437.475
YUBILEINY 19 Nov 07:01:53 07:09:53 39° 289° (WNW) 07:17:59 435.215
XW-2D 19 Nov 07:09:33 07:12:07 18° 294° (WNW) 07:14:42 145.860 - 145.880
PCSat 19 Nov 07:20:48 07:22:03 11° 31° (NNE) 07:23:17 145.827
XW-2B 19 Nov 07:24:59 07:26:45 13° 296° (WNW) 07:28:31 145.730 - 145.750
CUBEBUG 2 19 Nov 07:32:29 07:36:42 83° 285° (WNW) 07:40:50 437.445
UNISAT 6 19 Nov 07:32:54 07:35:11 14° 62° (ENE) 07:37:26 437.425
HO-68 19 Nov 07:35:21 07:42:33 76° 289° (WNW) 07:49:41 435.675
SEEDS 19 Nov 07:35:45 07:39:59 71° 285° (WNW) 07:44:12 437.485
TIGRISAT 19 Nov 07:37:49 07:40:10 14° 62° (ENE) 07:42:31 435.000
AO-73 19 Nov 07:46:19 07:50:06 34° 97° (E) 07:53:54 145.935
AAUSAT CUBESAT 2 19 Nov 07:49:41 07:53:53 71° 102° (ESE) 07:58:03 437.432
Oscar 11 19 Nov 08:05:17 08:09:21 38° 98° (E) 08:13:23 .
SO-50 19 Nov 08:09:54 08:13:10 19° 249° (WSW) 08:16:29 436.795
STRAND 1 19 Nov 08:10:08 08:12:16 12° 271° (W) 08:14:25 437.568
XW-2A 19 Nov 08:13:33 08:16:43 40° 287° (WNW) 08:19:53 145.665 - 145.685
CUTE-I 19 Nov 08:17:15 08:19:21 12° 304° (NW) 08:21:28 437.470
FO-29 19 Nov 08:23:44 08:30:00 50° 263° (W) 08:37:06 435.910
ZACube-1 19 Nov 08:29:46 08:33:53 65° 285° (WNW) 08:37:59 437.345
UWE-3 19 Nov 08:34:39 08:38:18 30° 291° (WNW) 08:41:56 435.000/436.395/437.385
CUTE 1.7 + AOD 2 19 Nov 08:38:48 08:40:04 11° 299° (WNW) 08:41:18 437.475
DELFI C3 19 Nov 08:42:36 08:45:35 20° 93° (E) 08:48:33 145.870
Max Valier Satellite 19 Nov 08:43:37 08:45:20 13° 91° (E) 08:47:03 145.860
